User: anonymous
Location: Mentone
(34.5413°N, 85.5351°W)
Time: 19:22:29
(UTC-05:00)
Language:

UOSAT-12 - Orbit

View from above orbital plane
View from above orbital plane
View from above satellite
View from above satellite

Ground track
Ground track

The orbit data is extracted from the following two-line orbital elements,

1 25693U 99021A   14266.68620495  .00000211  00000-0  46547-4 0  6121
2 25693 064.5567 319.0224 0049774 275.6983 219.7829 14.80041196832490
Epoch (UTC): 23 September 2014 16:28:08
Eccentricity: 0.0049774
inclination: 64.5567°
perigee height: 594 km
apogee height: 664 km
right ascension of ascending node: 319.0224°
argument of perigee: 275.6983°
revolutions per day: 14.80041196
mean anomaly at epoch: 219.7829°
orbit number at epoch: 83249

The dashed part of the orbit path shows where the satellite is in the earth's shadow,  

DLR